Flag for U.S.A. Weather past 2 weeks in Minot, North Dakota, U.S.A.

Now
46 °F

Overcast.


Feels Like: 39 °F
Forecast: 38 / 49 °F
Wind: 18 mph from Northwest

Location: Minot International Airport

Current Time: Apr 19, 2015 at 12:48:17 AM

Latest Report: Apr 18, 2015 at 11:54 PM


Visibility: 10 mi

Pressure: 29.94 "Hg

Humidity: 71%

Dew point: 37 °F

Location of MinotLocation

Historic Weather in Minot — Graph

°F

Minot temperature yesterday

Maximum temperature yesterday: 72 °F (at 1:54 PM)
Minimum temperature yesterday: 31 °F (at 6:54 AM)
Average temperature yesterday: 51 °F

Past Weeks' High & Low Weather Summary

 TemperatureHumidityPressure
High77 °F (Apr 14, 4:54 PM)97% (Apr 8, 10:01 AM)30.23 "Hg (Apr 8, 10:01 AM)
Low23 °F (Apr 4, 3:54 AM)11% (Apr 13, 5:54 PM)29.43 "Hg (Apr 12, 12:54 AM)
Average45 °F52%29.98 "Hg
* Reported Apr 3 10:54 PM — Apr 18 10:54 PM, Minot, Weather by CustomWeather, © 2015

Note: Actual official high and low records may vary slightly from our data, if they occured in-between our weather recording intervals... More about our weather records

Advertising

Minot weather history for previous 24 hours

 ConditionsComfort  
Time TempWeatherWind HumidityBarometerVisibility
10:54 PM
Sat, Apr 18
49 °FLight rain. Overcast.9 mph80%29.94 "Hg9 mi
9:54 PM49 °FLight rain. Overcast.6 mph86%29.95 "Hg7 mi
8:54 PM50 °FRain. Overcast.6 mph80%29.94 "Hg6 mi
7:54 PM53 °FLight rain. Overcast.23 mph64%29.91 "Hg10 mi
6:54 PM58 °FLight rain. More clouds than sun.24 mph47%29.90 "Hg10 mi
5:54 PM62 °FLight rain. Overcast.29 mph38%29.88 "Hg10 mi
4:54 PM71 °FPartly sunny.6 mph19%29.83 "Hg10 mi
4:01 PM72 °FScattered clouds.18 mph18%29.83 "Hg10 mi
2:54 PM71 °FSunny.12 mph18%29.88 "Hg10 mi
1:54 PM72 °FSunny.17 mph14%29.90 "Hg10 mi
12:54 PM68 °FSunny.14 mph20%29.93 "Hg10 mi
11:54 AM64 °FSunny.9 mph23%29.97 "Hg10 mi
10:54 AM59 °FSunny.10 mph29%29.99 "Hg10 mi
9:54 AM50 °FSunny.7 mph44%30.03 "Hg10 mi
8:54 AM42 °FSunny.6 mph60%30.05 "Hg10 mi
7:54 AM35 °FSunny.6 mph72%30.07 "Hg10 mi
6:54 AM31 °FClear.6 mph79%30.08 "Hg10 mi
5:54 AM32 °FClear.6 mph75%30.08 "Hg10 mi
4:54 AM34 °FClear.6 mph70%30.09 "Hg10 mi
3:54 AM37 °FClear.7 mph65%30.11 "Hg10 mi
2:54 AM39 °FClear.7 mph60%30.12 "Hg10 mi
1:54 AM40 °FClear.8 mph60%30.13 "Hg10 mi
12:54 AM44 °FClear.9 mph49%30.12 "Hg10 mi
Weather by CustomWeather, © 2015

See weather overviewHow to use our weather pages